FW1564 Weather Reports


Display with metric or nautical units.
time (UTC)temp
F
wind
direction
speed
MPH
gust
MPH
rain 1hr
in
rain 24hr
in
rain mn
in
humidity
%
barometer
mb
20260902195734 69 338 2.0 2.0 0.00 0.00 0.00 86 1019.6
20260902195211 69 333 0.0 3.0 0.00 0.00 0.00 86 1019.4
20260902194224 69 353 2.0 3.0 0.00 0.00 0.00 86 1019.2
20260902193213 69 343 2.0 2.0 0.00 0.00 0.00 88 1019.2
20260902191734 69 357 2.0 2.0 0.00 0.00 0.00 88 1019.1
20260902190734 70 320 0.0 2.0 0.00 0.00 0.00 88 1019.4
20260902185735 70 113 0.0 2.0 0.00 0.00 0.00 88 1019.5
20260902185221 71 227 1.0 2.0 0.00 0.00 0.00 87 1019.5
20260902184209 71 131 1.0 3.0 0.00 0.00 0.00 87 1019.4
20260902182735 71 154 0.0 3.0 0.00 0.00 0.00 86 1019.6
20260902181734 71 181 0.0 3.0 0.00 0.00 0.00 86 1019.5
20260902180735 71 140 1.0 6.0 0.00 0.00 0.00 86 1019.5
20260902175735 72 148 1.0 4.0 0.00 0.00 0.00 86 1019.5
20260902174734 71 63 0.0 6.0 0.00 0.00 0.00 87 1019.8
20260902173734 71 190 2.0 6.0 0.00 0.00 0.00 87 1019.8
20260902172734 71 88 4.0 6.0 0.00 0.00 0.00 86 1019.8
20260902171734 71 109 1.0 6.0 0.00 0.00 0.00 86 1019.7
20260902170734 71 90 3.0 4.0 0.00 0.00 0.00 86 1019.7
20260902165734 71 112 3.0 6.0 0.00 0.00 0.00 86 1019.8
20260902165220 72 128 1.0 7.0 0.00 0.00 0.00 86 1020.1
20260902164649 72 84 3.0 7.0 0.00 0.00 0.00 85 1020.0
20260902162734 72 135 5.0 6.0 0.00 0.00 0.00 84 1019.9
20260902161734 73 136 5.0 7.0 0.00 0.00 0.00 84 1019.9
20260902161216 72 135 4.0 6.0 0.00 0.00 0.00 85 1020.1
20260902155734 72 131 1.0 6.0 0.00 0.00 0.00 85 1020.2
20260902155702 73 194 2.0 6.0 0.00 0.00 0.00 83 1020.5
20260902153733 73 184 3.0 7.0 0.00 0.00 0.00 82 1020.4
20260902152734 73 98 2.0 8.0 0.00 0.00 0.00 83 1020.4
20260902151734 72 161 2.0 7.0 0.00 0.00 0.00 83 1020.4
20260902150737 73 119 4.0 6.0 0.00 0.00 0.00 82 1020.6
20260902145736 73 54 2.0 7.0 0.00 0.00 0.00 82 1020.5
20260902144735 73 167 7.0 8.0 0.00 0.00 0.00 81 1020.7
20260902143734 73 152 1.0 8.0 0.00 0.00 0.00 81 1020.7
20260902142734 73 114 4.0 7.0 0.00 0.00 0.00 82 1020.9
20260902141733 73 197 6.0 7.0 0.00 0.00 0.00 80 1020.8
20260902140734 73 150 4.0 8.0 0.00 0.00 0.00 79 1021.0
20260902135734 74 133 5.0 9.0 0.00 0.00 0.00 79 1020.9
20260902135211 75 205 4.0 9.0 0.00 0.00 0.00 76 1021.1
20260902133734 76 153 3.0 10.0 0.00 0.00 0.00 75 1020.9
20260902132734 77 117 5.0 11.0 0.00 0.00 0.00 73 1020.9
20260902132251 77 129 7.0 10.0 0.00 0.00 0.00 74 1020.8
20260902132155 76 180 4.0 9.0 0.00 0.00 0.00 74 1020.8
20260902125734 76 101 1.0 10.0 0.00 0.00 0.00 75 1020.8
20260902124735 76 69 2.0 9.0 0.00 0.00 0.00 75 1020.8
20260902123734 76 125 5.0 13.0 0.00 0.00 0.00 75 1021.1
20260902123212 76 97 3.0 13.0 0.00 0.00 0.00 74 1021.1
20260902121734 76 155 6.0 9.0 0.00 0.00 0.00 71 1021.1
20260902121216 76 161 4.0 9.0 0.00 0.00 0.00 73 1021.0
20260902115734 75 111 5.0 10.0 0.00 0.00 0.00 74 1021.0
20260902114734 76 102 5.0 9.0 0.00 0.00 0.00 71 1021.1
20260902113734 76 90 7.0 8.0 0.00 0.00 0.00 72 1021.2
20260902112734 77 149 3.0 8.0 0.00 0.00 0.00 70 1021.2
20260902111734 76 139 6.0 8.0 0.00 0.00 0.00 70 1021.2
20260902110734 76 124 6.0 8.0 0.00 0.00 0.00 72 1021.1
20260902105734 76 106 6.0 7.0 0.00 0.00 0.00 70 1021.2
20260902104733 76 82 5.0 9.0 0.00 0.00 0.00 70 1021.3
20260902103734 75 185 4.0 7.0 0.00 0.00 0.00 72 1021.3
20260902102734 75 148 4.0 7.0 0.00 0.00 0.00 72 1021.2
20260902101734 75 121 3.0 7.0 0.00 0.00 0.00 71 1020.8
20260902100734 75 160 3.0 8.0 0.00 0.00 0.00 70 1020.9
20260902100213 74 138 5.0 7.0 0.00 0.00 0.00 71 1021.0
20260902094733 74 175 3.0 7.0 0.00 0.00 0.00 72 1021.1
20260902093734 75 135 5.0 7.0 0.00 0.00 0.00 69 1020.9
20260902092734 76 247 1.0 3.0 0.00 0.00 0.00 66 1020.8
20260902091734 74 67 0.0 2.0 0.00 0.00 0.00 69 1020.8
20260902090734 72 40 1.0 2.0 0.00 0.00 0.00 72 1020.8
20260902085734 69 7 1.0 3.0 0.00 0.00 0.00 76 1020.8
20260902084733 69 11 3.0 3.0 0.00 0.00 0.00 76 1020.8
20260902083734 68 10 3.0 4.0 0.00 0.00 0.00 76 1021.0
20260902082734 67 10 2.0 4.0 0.00 0.00 0.00 74 1020.9
20260902081735 67 352 3.0 6.0 0.00 0.00 0.00 73 1020.8
20260902080734 66 341 3.0 6.0 0.00 0.00 0.00 72 1020.6
20260902080209 65 324 2.0 4.0 0.00 0.00 0.00 71 1020.7
20260902074710 65 340 3.0 6.0 0.00 0.00 0.00 69 1020.3
20260902073710 65 333 4.0 4.0 0.00 0.00 0.00 70 1020.4
20260902072710 64 349 3.0 6.0 0.00 0.00 0.00 69 1020.2
20260902071710 65 18 3.0 6.0 0.00 0.00 0.00 71 1020.2
20260902070710 65 337 3.0 6.0 0.00 0.00 0.00 74 1020.1
20260902070145 65 337 3.0 4.0 0.00 0.00 0.00 77 1020.3
20260902064710 64 333 4.0 6.0 0.00 0.00 0.00 78 1020.3
20260902063710 64 352 4.0 6.0 0.00 0.00 0.00 77 1020.1
20260902062711 64 328 3.0 7.0 0.00 0.00 0.00 75 1020.1
20260902062628 64 344 4.0 6.0 0.00 0.00 0.00 79 1020.0
20260902060713 65 348 4.0 4.0 0.00 0.00 0.00 81 1020.1
20260902055710 65 353 3.0 6.0 0.00 0.00 0.00 82 1019.9
20260902054710 64 343 4.0 6.0 0.00 0.00 0.00 83 1019.9
20260902053710 64 348 3.0 4.0 0.00 0.00 0.00 82 1019.9
20260902052710 64 334 3.0 4.0 0.00 0.00 0.00 81 1020.1
20260902051711 65 5 4.0 6.0 0.00 0.00 0.00 79 1019.9
20260902050710 65 359 2.0 6.0 0.00 0.00 0.00 78 1019.7
20260902045710 65 343 4.0 7.0 0.00 0.00 0.00 76 1019.7
20260902044710 65 351 4.0 8.0 0.00 0.00 0.00 77 1019.7
20260902043710 65 337 3.0 6.0 0.00 0.00 0.00 80 1019.7
20260902042710 64 337 4.0 6.0 0.00 0.00 0.00 80 1019.9
20260902042159 65 337 3.0 4.0 0.00 0.00 0.00 76 1019.9
20260902040712 65 349 3.0 6.0 0.00 0.00 0.00 77 1019.9
20260902035710 65 343 4.0 8.0 0.00 0.00 0.00 76 1019.9
20260902034710 65 352 4.0 8.0 0.00 0.00 0.00 77 1019.9
20260902033710 65 351 4.0 7.0 0.00 0.00 0.00 81 1019.9
20260902032709 65 332 4.0 6.0 0.00 0.00 0.00 85 1020.2
20260902031711 65 338 2.0 6.0 0.00 0.00 0.00 85 1020.1
20260902030711 65 342 2.0 4.0 0.00 0.00 0.00 83 1020.2
20260902025711 65 333 3.0 4.0 0.00 0.00 0.00 82 1020.4
20260902024710 65 354 2.0 4.0 0.00 0.00 0.00 82 1020.5
20260902023710 65 5 3.0 4.0 0.00 0.00 0.00 80 1020.7
20260902022710 64 345 4.0 6.0 0.00 0.00 0.00 80 1020.8
20260902021710 65 339 2.0 4.0 0.00 0.00 0.00 83 1020.6
20260902020711 65 338 3.0 6.0 0.00 0.00 0.00 83 1020.9
20260902015710 65 334 4.0 7.0 0.00 0.00 0.00 80 1021.0
20260902014710 65 320 4.0 7.0 0.00 0.00 0.00 81 1020.8
20260902014628 65 338 4.0 6.0 0.00 0.00 0.00 84 1020.9
20260902012710 65 350 1.0 7.0 0.00 0.00 0.00 84 1021.1
20260902012107 66 344 4.0 6.0 0.00 0.00 0.00 84 1021.2
20260902011737 66 341 2.0 4.0 0.00 0.00 0.00 82 1021.3
20260902005710 66 4 2.0 4.0 0.00 0.00 0.00 82 1021.3
20260902004710 65 334 2.0 4.0 0.00 0.00 0.00 83 1021.3
20260902004155 65 350 2.0 4.0 0.00 0.00 0.00 82 1021.6
20260902002711 65 346 2.0 4.0 0.00 0.00 0.00 81 1021.5
20260902001711 66 339 4.0 7.0 0.00 0.00 0.00 79 1021.3
20260902000711 66 341 4.0 8.0 0.00 0.00 0.00 81 1021.3
20260901235710 66 351 3.0 6.0 0.00 0.00 0.00 83 1021.6
20260901234711 66 324 3.0 0.0 0.00 0.00 0.00 84 1021.6
20260901233410 67 346 2.0 6.0 0.00 0.00 0.00 84 1021.7
20260901232409 67 342 3.0 4.0 0.00 0.00 0.00 84 1021.9
20260901231409 67 340 4.0 6.0 0.00 0.00 0.00 86 1021.8
20260901230413 67 349 2.0 4.0 0.00 0.00 0.00 86 1022.0
20260901225849 67 341 1.0 2.0 0.00 0.00 0.00 87 1022.2
20260901224408 68 22 0.0 1.0 0.00 0.00 0.00 89 1022.3
20260901223408 69 147 1.0 2.0 0.00 0.00 0.00 89 1022.2
20260901222411 69 145 1.0 2.0 0.00 0.00 0.00 87 1022.3
20260901221409 69 5 0.0 0.0 0.00 0.00 0.00 85 1022.3
20260901220409 69 22 1.0 2.0 0.00 0.00 0.00 84 1022.1
20260901215854 69 17 1.0 1.0 0.00 0.00 0.00 85 1022.3
20260901214409 69 315 1.0 2.0 0.00 0.00 0.00 86 1022.2
20260901213904 68 0 1.0 2.0 0.00 0.00 0.00 85 1022.3
20260901212409 68 346 1.0 3.0 0.00 0.00 0.00 86 1022.2
20260901211409 69 191 0.0 2.0 0.00 0.00 0.00 88 1022.0
20260901210408 68 350 1.0 2.0 0.00 0.00 0.00 87 1021.9
20260901205409 68 355 1.0 2.0 0.00 0.00 0.00 88 1021.9
20260901204852 68 356 0.0 1.0 0.00 0.00 0.00 89 1021.8
20260901203409 68 345 1.0 2.0 0.00 0.00 0.00 90 1021.7
20260901202409 68 27 0.0 2.0 0.00 0.00 0.00 91 1021.6
20260901201410 68 355 0.0 2.0 0.00 0.00 0.00 91 1021.0
20260901200851 69 332 0.0 1.0 0.00 0.00 0.00 90 1021.0